Weather History for KAXA - January, 2014

Change the Weather History Date:

Saturday, January 4, 2014

  Actual Average Record
Temperature  
Mean Temperature 17 °F -  
Max Temperature 33 °F 25 °F 50 °F (2003)
Min Temperature 1 °F 10 °F -14 °F (1999)
Degree Days  
Heating Degree Days 48    
Moisture  
Dew Point 9 °F    
Average Humidity 75    
Maximum Humidity 87    
Minimum Humidity 66    
Precipitation  
Precipitation 0.00 in - - ()
Sea Level Pressure  
Sea Level Pressure 29.89 in    
Wind  
Wind Speed 18 mph (NNW)    
Max Wind Speed 30 mph    
Max Gust Speed 39 mph    
Visibility 9 miles    
Events Rain , Snow    
Averages and records for this station are not official NWS values.
T = Trace of Precipitation, MM = Missing Value Source: NWS Daily Summary

Daily Weather History Graph

Daily Weather History Graph

Search for Another Location

Airport or City:

Trip Planner

Search our weather history database for the weather conditions in past years. The results will help you decide how hot, cold, wet, or windy it might be!

Date:

Astronomy

Jan. 04, 2014 Rise Set
Actual Time 7:48 AM CST 4:55 PM CST
Civil Twilight 7:16 AM CST 5:27 PM CST
Nautical Twilight 6:40 AM CST 6:03 PM CST
Astronomical Twilight 6:06 AM CST 6:37 PM CST
Moon 9:48 AM CST (1/4) 9:23 PM CST (1/4)
Length of Visible Light 10h 11m
Length of Day
9h 06m
Waxing Crescent, 15% of the Moon is Illuminated
Jan 4
Waxing Crescent
Jan 7
First Quarter
Jan 15
Full
Jan 23
Last Quarter
Jan 30
New

Hourly Weather History & Observations

Time (CST) Temp. Windchill Dew Point Humidity Pressure Visibility Wind Dir Wind Speed Gust Speed Precip Events Conditions
12:15 AM 28.4 °F 17.5 °F 24.8 °F 86% 29.51 in 10.0 mi SSW 13.8 mph - N/A   Mostly Cloudy
12:35 AM 30.2 °F 19.3 °F 24.8 °F 80% 29.51 in 10.0 mi SSW 15.0 mph - N/A   Overcast
12:55 AM 30.2 °F 19.3 °F 26.6 °F 86% 29.50 in 10.0 mi SSW 15.0 mph - N/A   Overcast
1:15 AM 30.2 °F 19.8 °F 26.6 °F 86% 29.51 in 10.0 mi SSW 13.8 mph - N/A   Overcast
1:35 AM 30.2 °F 20.2 °F 26.6 °F 86% 29.51 in 10.0 mi SSW 12.7 mph - N/A   Overcast
1:55 AM 32.0 °F 22.5 °F 26.6 °F 80% 29.51 in 10.0 mi SSW 12.7 mph - N/A   Overcast
2:15 AM 32.0 °F 23.0 °F 28.4 °F 87% 29.52 in 10.0 mi SW 11.5 mph - N/A   Overcast
2:35 AM 32.0 °F 22.5 °F 28.4 °F 87% 29.54 in 10.0 mi SW 12.7 mph - N/A   Overcast
2:55 AM 32.0 °F 22.5 °F 28.4 °F 87% 29.54 in 10.0 mi SW 12.7 mph - N/A   Overcast
3:15 AM 32.0 °F 23.0 °F 28.4 °F 87% 29.55 in 10.0 mi SW 11.5 mph 18.4 mph N/A   Overcast
3:35 AM 32.0 °F 23.6 °F 28.4 °F 87% 29.55 in 10.0 mi WSW 10.4 mph 17.3 mph N/A   Mostly Cloudy
3:55 AM 33.8 °F 24.8 °F 30.2 °F 87% 29.56 in 10.0 mi WSW 12.7 mph - N/A   Overcast
4:15 AM 33.8 °F 24.8 °F 30.2 °F 87% 29.57 in 10.0 mi WSW 12.7 mph - N/A   Mostly Cloudy
4:35 AM 33.8 °F 24.3 °F 30.2 °F 87% 29.59 in 10.0 mi West 13.8 mph - N/A   Overcast
4:55 AM 33.8 °F 25.8 °F 30.2 °F 87% 29.60 in 10.0 mi WNW 10.4 mph - N/A   Overcast
5:15 AM 30.2 °F 17.1 °F 26.6 °F 86% 29.63 in 7.0 mi NNW 21.9 mph 33.4 mph N/A   Overcast
5:35 AM 24.8 °F 10.3 °F 21.2 °F 86% 29.67 in 7.0 mi NNW 20.7 mph 29.9 mph N/A   Overcast
5:55 AM 21.2 °F 4.9 °F 15.8 °F 80% 29.68 in 7.0 mi NNW 23.0 mph 34.5 mph N/A   Overcast
6:15 AM 19.4 °F 1.1 °F 14.0 °F 80% 29.72 in 7.0 mi NNW 27.6 mph 35.7 mph N/A Snow Light Snow
6:35 AM 19.4 °F 2.5 °F 14.0 °F 80% 29.74 in 3.0 mi NNW 23.0 mph 32.2 mph N/A   Light Freezing Rain
6:55 AM 17.6 °F -1.9 °F 10.4 °F 73% 29.75 in 6.0 mi NNW 29.9 mph 36.8 mph N/A   Light Freezing Rain
7:15 AM 15.8 °F -3.4 °F 8.6 °F 73% 29.77 in 2.5 mi NNW 26.5 mph 39.1 mph N/A Rain Light Freezing Rain
7:35 AM 14.0 °F -6.5 °F 6.8 °F 73% 29.80 in 5.0 mi NNW 28.8 mph 38.0 mph N/A   Light Freezing Rain
7:55 AM 12.2 °F -8.6 °F 6.8 °F 79% 29.81 in 4.0 mi NNW 27.6 mph 34.5 mph N/A   Light Freezing Rain
8:15 AM 12.2 °F -7.9 °F 6.8 °F 79% 29.85 in 5.0 mi NNW 25.3 mph - N/A Rain Light Freezing Rain
8:35 AM 12.2 °F -7.1 °F 6.8 °F 79% 29.84 in 4.0 mi NNW 23.0 mph 33.4 mph N/A Rain Light Freezing Rain
8:55 AM 12.2 °F -6.3 °F 6.8 °F 79% 29.84 in 3.0 mi NNW 20.7 mph 32.2 mph N/A Snow Light Snow
9:15 AM 12.2 °F -6.7 °F 6.8 °F 79% 29.87 in 2.5 mi NNW 21.9 mph 29.9 mph N/A Snow Light Snow
9:35 AM 12.2 °F -7.1 °F 6.8 °F 79% 29.89 in 2.5 mi NNW 23.0 mph 34.5 mph N/A Snow Light Snow
9:55 AM 12.2 °F -6.3 °F 5.0 °F 73% 29.91 in 6.0 mi NNW 20.7 mph 31.1 mph N/A   Light Freezing Rain
10:15 AM 12.2 °F -7.5 °F 5.0 °F 73% 29.91 in 8.0 mi NNW 24.2 mph 31.1 mph N/A   Light Freezing Rain
10:35 AM 12.2 °F -6.7 °F 5.0 °F 73% 29.91 in 7.0 mi North 21.9 mph 29.9 mph N/A   Light Freezing Rain
10:55 AM 12.2 °F -6.7 °F 5.0 °F 73% 29.91 in 8.0 mi North 21.9 mph 33.4 mph N/A   Overcast
11:15 AM 12.2 °F -6.7 °F 5.0 °F 73% 29.92 in 8.0 mi North 21.9 mph 29.9 mph N/A   Light Freezing Rain
11:35 AM 12.2 °F -6.7 °F 5.0 °F 73% 29.93 in 8.0 mi North 21.9 mph 28.8 mph N/A   Light Freezing Rain
11:55 AM 12.2 °F -5.3 °F 5.0 °F 73% 29.94 in 9.0 mi North 18.4 mph 27.6 mph N/A   Overcast
12:15 PM 12.2 °F -6.3 °F 5.0 °F 73% 29.91 in 9.0 mi North 20.7 mph 26.5 mph N/A   Overcast
12:35 PM 12.2 °F -4.8 °F 5.0 °F 73% 29.94 in 9.0 mi North 17.3 mph 25.3 mph N/A   Overcast
12:55 PM 14.0 °F -3.0 °F 5.0 °F 67% 29.97 in 9.0 mi NNW 18.4 mph 25.3 mph N/A Rain Light Freezing Rain
1:15 PM 14.0 °F -3.4 °F 5.0 °F 67% 29.97 in 9.0 mi NNW 19.6 mph 25.3 mph N/A   Overcast
1:35 PM 14.0 °F -2.5 °F 5.0 °F 67% 29.98 in 9.0 mi NNW 17.3 mph 24.2 mph N/A   Overcast
1:55 PM 14.0 °F -3.9 °F 5.0 °F 67% 29.98 in 9.0 mi NNW 20.7 mph - N/A   Light Freezing Rain
2:15 PM 12.2 °F -4.3 °F 5.0 °F 73% 29.99 in 10.0 mi NNW 16.1 mph 27.6 mph N/A   Overcast
2:35 PM 14.0 °F -3.4 °F 5.0 °F 67% 29.98 in 10.0 mi NNW 19.6 mph 26.5 mph N/A   Overcast
2:55 PM 12.2 °F -6.3 °F 3.2 °F 67% 29.99 in 10.0 mi North 20.7 mph 29.9 mph N/A   Overcast
3:15 PM 12.2 °F -5.3 °F 3.2 °F 67% 30.03 in 10.0 mi NNW 18.4 mph 26.5 mph N/A   Overcast
3:35 PM 12.2 °F -5.8 °F 3.2 °F 67% 30.05 in 10.0 mi NNW 19.6 mph 25.3 mph N/A   Mostly Cloudy
3:55 PM 12.2 °F -6.3 °F 3.2 °F 67% 30.05 in 10.0 mi NNW 20.7 mph 27.6 mph N/A   Mostly Cloudy
4:15 PM 12.2 °F -5.3 °F 3.2 °F 67% 30.05 in 10.0 mi NNW 18.4 mph 28.8 mph N/A   Mostly Cloudy
4:35 PM 10.4 °F -9.5 °F 1.4 °F 67% 30.06 in 10.0 mi North 23.0 mph 28.8 mph N/A   Mostly Cloudy
4:55 PM 10.4 °F -6.6 °F 1.4 °F 67% 30.06 in 10.0 mi NNW 16.1 mph 24.2 mph N/A   Partly Cloudy
5:15 PM 10.4 °F -7.7 °F 1.4 °F 67% 30.07 in 10.0 mi North 18.4 mph 26.5 mph N/A   Clear
5:35 PM 8.6 °F -10.5 °F -0.4 °F 67% 30.08 in 10.0 mi NNW 19.6 mph 26.5 mph N/A   Clear
5:55 PM 8.6 °F -10.5 °F -0.4 °F 67% 30.08 in 10.0 mi North 19.6 mph 26.5 mph N/A   Clear
6:15 PM 8.6 °F -10.5 °F -0.4 °F 67% 30.09 in 10.0 mi North 19.6 mph 31.1 mph N/A   Clear
6:35 PM 6.8 °F -15.5 °F -2.2 °F 67% 30.09 in 10.0 mi North 26.5 mph - N/A   Clear
6:55 PM 6.8 °F -12.4 °F -2.2 °F 67% 30.11 in 10.0 mi North 18.4 mph 27.6 mph N/A   Clear
7:15 PM 6.8 °F -13.4 °F -2.2 °F 67% 30.12 in 10.0 mi North 20.7 mph 27.6 mph N/A   Clear
7:35 PM 6.8 °F -11.8 °F -2.2 °F 67% 30.14 in 10.0 mi North 17.3 mph 27.6 mph N/A   Clear
7:55 PM 5.0 °F -14.7 °F -2.2 °F 72% 30.14 in 10.0 mi North 18.4 mph 27.6 mph N/A   Clear
8:15 PM 5.0 °F -13.6 °F -2.2 °F 72% 30.15 in 10.0 mi North 16.1 mph 23.0 mph N/A   Clear
8:35 PM 5.0 °F -15.7 °F -2.2 °F 72% 30.15 in 10.0 mi North 20.7 mph - N/A   Clear
8:55 PM 5.0 °F -14.7 °F -2.2 °F 72% 30.15 in 10.0 mi North 18.4 mph - N/A   Clear
9:15 PM 5.0 °F -15.7 °F -2.2 °F 72% 30.16 in 10.0 mi North 20.7 mph 26.5 mph N/A   Clear
9:35 PM 5.0 °F -15.2 °F -2.2 °F 72% 30.17 in 10.0 mi North 19.6 mph 26.5 mph N/A   Clear
9:55 PM 5.0 °F -16.2 °F -2.2 °F 72% 30.17 in 10.0 mi North 21.9 mph - N/A   Clear
10:15 PM 3.2 °F -18.6 °F -4.0 °F 72% 30.17 in 10.0 mi North 21.9 mph 31.1 mph N/A   Partly Cloudy
10:35 PM 3.2 °F -18.1 °F -4.0 °F 72% 30.18 in 10.0 mi North 20.7 mph 31.1 mph N/A   Partly Cloudy
10:55 PM 3.2 °F -17.1 °F -4.0 °F 72% 30.18 in 10.0 mi North 18.4 mph 26.5 mph N/A   Clear
11:15 PM 3.2 °F -18.6 °F -5.8 °F 66% 30.18 in 10.0 mi North 21.9 mph 29.9 mph N/A   Mostly Cloudy
11:35 PM 1.4 °F -21.0 °F -5.8 °F 72% 30.18 in 10.0 mi North 21.9 mph 28.8 mph N/A   Scattered Clouds
11:55 PM 1.4 °F -19.9 °F -5.8 °F 72% 30.19 in 10.0 mi North 19.6 mph 28.8 mph N/A   Partly Cloudy